422  
ASGM40 PGUM 211210  
RWRGUM  
WEATHER ROUNDUP FOR THE MARIANAS  
NATIONAL WEATHER SERVICE TIYAN GU  
1000 PM CHST SUN OCT 21 2018  
 
GUZ001>004-211300-  
MARIANA ISLANDS-  
 
CITY SKY/WX TMP DP RH WIND PRES REMARKS
 
GUAM AIRPORT MOCLDY 81 81 100 E5 29.83S HX 91  
ANDERSEN AFB NOT AVBL  
ROTA AIRPORT NOT AVBL  
TINIAN AP NOT AVBL  
SAIPAN AP PTCLDY 81 79 94 E6 29.83R  
 

 
 
 
 
CLICK HERE TO GO TO PREVIOUS BULLETINS.

The Nexlab GU Page Main Text Page